Location: *
(41.3833°S, 177.8333°W)
Time: 00:04:50
(UTC+00:00)

Daily predictions for brighter satellites

Satellite Brightness Start Highest point End
(mag) Time Altitude Azimuth Time Altitude Azimuth Time Altitude Azimuth
SL-08 RB Rocket 3.9 07:49:26 10° SSE 07:54:09 60° E 07:58:45 10° N
CZ-4 R/B 3.0 07:51:28 10° S 07:55:29 43° WSW 07:59:30 10° NW
IRIS 3.5 07:56:17 10° W 07:58:51 88° N 08:01:13 10° E
ARGOS 3.2 07:53:37 10° SSE 07:59:07 85° ENE 08:04:31 10° NNW
CSL-04 Debris 4.2 07:53:32 10° SSE 07:59:08 81° ENE 08:04:37 10° NNW
Iridium 4 Rocket 3.7 07:57:52 10° NNW 08:02:28 63° W 08:06:49 10° S
Lacrosse 5 rocket 1.9 08:00:36 10° SW 08:05:04 65° NW 08:09:39 10° NNE
Cosmos 1892 4.0 08:05:34 10° SSW 08:09:17 42° W 08:12:55 10° NNW
NOSS 3-2 (C) 4.4 08:00:40 10° NW 08:09:18 78° SW 08:17:02 10° SSE
ATLAS CENTAUR R/B 3.5 08:07:27 10° WNW 08:11:55 38° SW 08:16:29 10° SSE
Cosmos 1656 Rocket 4.4 08:09:45 10° S 08:15:09 42° ESE 08:20:08 12° NE
FALCON 9 DEB 4.1 08:14:29 10° N 08:17:05 23° NE 08:19:42 10° ESE
Cosmos 1553 Rocket 4.4 08:14:12 10° NNE 08:20:07 45° E 08:25:59 10° SSE
Aureole 3 Rocket 4.1 08:16:09 10° N 08:21:38 75° E 08:29:29 10° S
OBJECT-B 0.9 08:26:05 10° SSE 08:29:20 55° E 08:32:32 10° N
Cosmos 1408 4.4 08:27:05 10° SSW 08:30:28 32° W 08:33:48 10° NNW
USA 307 3.6 08:26:31 10° WNW 08:30:51 59° SW 08:35:13 10° SE
SL-4 R/B 2.9 08:27:14 10° WNW 08:31:26 53° SSW 08:35:19 10° SE
Cosmos 2369 Rocket 2.3 08:27:29 10° SSW 08:33:17 83° WNW 08:38:37 12° NNE
USA 308 3.9 08:35:08 10° WNW 08:39:25 52° SW 08:43:45 10° SE
S3M 4.4 08:33:53 11° NNE 08:39:36 45° E 08:45:35 10° SSE
Cosmos 1812 Rocket 3.9 08:35:18 10° NNW 08:39:39 66° W 08:44:03 10° S
USA 305 4.1 08:37:52 10° WNW 08:42:04 48° SSW 08:46:20 10° SE
Cosmos 2285 Rocket 4.3 08:35:40 10° SSW 08:42:05 57° ESE 08:46:56 18° NE
BREEZE-M DEB (TANK) 3.7 08:37:59 10° WSW 08:42:33 34° S 08:44:11 11° ESE
Cosmos 1943 3.4 08:37:53 10° NNW 08:43:32 77° WSW 08:49:13 10° SSE
H-2A R/B 4.2 08:43:05 10° N 08:47:06 50° W 08:51:10 10° SSW
Cosmos 1184 Rocket 4.1 08:45:30 10° SSW 08:48:35 37° W 08:51:37 10° NNW
Cosmos 405 Rocket 4.1 08:45:30 10° SSE 08:48:51 25° ESE 08:50:21 20° ENE
Cosmos 2151 2.9 08:44:34 10° S 08:48:54 79° E 08:52:06 18° NNE
USA 186 3.8 08:46:14 10° S 08:49:05 30° WSW 08:51:57 10° NW
Cosmos-2242 3.0 08:45:25 10° N 08:49:47 80° E 08:54:16 10° S
Cosmos 1766 Rocket 4.3 08:45:38 10° S 08:49:51 37° ESE 08:52:04 23° NE
CENTAUR R/B 4.2 08:45:57 10° WNW 08:53:33 44° SW 09:00:08 10° SSE
USA 306 4.4 08:49:36 10° WNW 08:53:43 41° SSW 08:57:52 10° SE
Cosmos 1680 Rocket 4.4 08:52:59 21° NE 08:55:15 29° E 08:59:46 10° SE
CZ-2C R/B 2.0 08:53:48 10° WNW 08:57:28 34° N 08:58:46 27° NE
FALCON 9 DEB 2.9 08:56:03 10° NW 08:59:13 57° NE 09:02:27 10° ESE
SJ-6B 3.7 08:57:06 10° S 09:00:48 47° WSW 09:04:26 10° NNW
Cosmos 1943 Rocket 3.9 08:56:15 10° SW 09:00:52 27° WNW 09:05:25 10° NNW
ARIANE 5 R/B 4.1 08:59:05 10° SE 09:02:27 20° E 09:02:52 20° E
FALCON 9 DEB 2.8 08:59:28 10° NW 09:02:40 72° NE 09:05:56 10° SE
FREGAT/IRIS 3.5 09:01:49 10° S 09:04:06 37° WSW 09:05:48 15° NW
Cosmos 1869 3.8 09:02:54 29° NE 09:04:27 42° E 09:08:24 10° SSE
Cosmos 1745 Rocket 4.1 08:59:55 10° S 09:06:22 69° E 09:10:41 22° NNE
IRS-1A Rocket 4.4 09:01:15 10° SSE 09:06:58 80° WSW 09:12:44 10° NNW
Cosmos 2221 3.6 09:08:04 25° ENE 09:08:52 27° E 09:12:36 10° SSE
SAR-Lupe-2 4.4 09:08:49 31° ENE 09:09:46 37° ESE 09:13:10 10° S
OAO 2 Rocket 4.5 09:06:10 10° WNW 09:10:43 29° NNW 09:12:18 24° NNE
Cosmos 489 Rocket 4.4 09:05:46 10° NNW 09:12:01 77° ENE 09:18:19 10° SSE
Cosmos 371 Rocket 4.5 09:08:14 10° S 09:12:36 30° ESE 09:14:35 23° ENE
USA 215 3.7 09:08:12 21° NNE 09:12:39 55° NW 09:19:08 10° SW
ATLAS 3B R/B 2.8 09:05:35 10° NNW 09:13:05 81° ENE 09:20:33 10° SE
Cosmos 1842 Rocket 4.4 09:13:45 30° ENE 09:14:40 33° E 09:18:37 10° SSE
Cosmos 405 3.9 09:14:25 12° NNW 09:17:32 48° WSW 09:21:01 10° S
USA 281 4.3 09:12:25 10° SE 09:17:34 24° ENE 09:18:38 23° ENE
Cosmos 158 Rocket 3.9 09:14:22 14° N 09:18:58 71° ENE 09:24:15 10° SSE
Resurs 01 Rocket 1.6 09:14:51 10° SSE 09:19:23 73° ENE 09:21:54 26° N
Cosmos 1709 Rocket 4.3 09:18:38 10° S 09:24:58 55° ESE 09:28:00 30° NE
Cosmos 1633 3.1 09:21:27 10° SSW 09:25:03 55° W 09:26:33 30° NNW
Meteor 1-27 4.2 09:20:45 15° N 09:25:29 86° W 09:31:13 10° S
SPOT 3 Rocket 3.5 09:22:58 10° SSE 09:28:17 85° ENE 09:31:52 21° NNW
ERBS 2.4 09:27:00 10° NW 09:30:23 76° SW 09:33:51 10° SE
Ariane Rocket 4.2 09:26:10 10° S 09:31:00 43° WSW 09:35:47 10° NW
Cosmos 2112 Rocket 4.1 09:29:19 33° NNE 09:31:20 53° ENE 09:36:28 10° SSE
FALCON 9 DEB 3.3 09:30:08 10° WNW 09:33:21 65° SW 09:36:38 10° SE
Thor Agena Rocket 4.5 09:36:50 29° ENE 09:38:31 36° ESE 09:43:17 10° S
Atlas Centaur 2 3.7 09:37:37 10° NW 09:37:52 11° NW 09:37:52 11° NW
ERS-1 Rocket 4.0 09:36:05 10° SE 09:40:27 28° E 09:40:35 28° E
Cosmos 1500 Rocket 4.3 09:36:33 10° S 09:40:42 36° ESE 09:41:16 35° E
Cosmos 1408 Rocket 3.5 09:40:59 10° S 09:45:29 81° E 09:46:28 53° NNE
ATLAS CENTAUR R/B 3.4 09:40:42 10° SW 09:45:39 89° SE 09:52:02 29° NE
Cosmos 2315 Rocket 3.9 09:48:51 31° N 09:52:05 85° E 09:58:26 10° S
Terra 3.2 09:48:25 10° SE 09:51:51 24° E 09:51:51 24° E
USA 245 3.7 09:47:13 10° SSE 09:52:40 78° ENE 09:53:52 50° N
FALCON 9 DEB 4.4 09:49:45 10° WNW 09:52:50 39° SSW 09:55:57 10° SE
SPOT 1/Viking Rocket 3.5 09:48:43 10° SSE 09:54:01 69° ENE 09:55:35 45° N
Cosmos 389 Rocket 2.4 09:55:32 81° SW 09:55:32 81° SW 09:58:55 10° S
CARTOSAT-1 3.7 09:55:27 10° SSE 09:59:45 53° E 09:59:45 53° E
COSMOS 2406 4.3 10:05:42 27° E 10:05:42 27° E 10:09:54 10° SE
Cosmos 332 Rocket 3.9 10:03:21 10° SSW 10:08:17 64° ESE 10:09:00 56° ENE
Meteor 2-17 Rocket 4.4 10:03:40 10° S 10:09:51 85° E 10:11:47 47° NNE
Cosmos 304 Rocket 4.1 10:05:43 10° S 10:10:29 53° ESE 10:11:05 49° E
Cosmos 1862 3.3 10:13:35 10° S 10:17:38 80° WSW 10:17:38 80° WSW
Cosmos 2074 Rocket 4.2 10:13:32 10° S 10:19:44 56° E 10:21:10 46° NE
BREEZE M DEB (TANK) 4.0 10:18:39 10° SSW 10:20:08 18° S 10:20:08 18° S
SPOT 5 2.7 10:17:36 10° SSE 10:21:58 65° E 10:21:58 65° E
Cosmos 1743 Rocket 3.6 10:19:15 10° SSW 10:23:48 75° W 10:24:05 72° NW
EO 1 Del DPAF 4.1 10:27:34 43° SE 10:27:34 43° SE 10:30:36 10° S
Nadezhda 1 Rocket 4.3 10:27:50 44° ENE 10:28:46 47° E 10:34:51 10° SSE
Cosmos 1805 Rocket 3.7 10:28:13 10° S 10:32:35 69° ESE 10:32:35 69° ESE
Cosmos 1697 Rocket 4.0 10:28:30 10° S 10:33:26 30° SE 10:35:07 25° E
Cosmos 1606 3.3 10:34:18 54° SSE 10:34:18 54° SSE 10:37:28 10° S
ARIANE 5 R/B 3.8 10:34:48 10° S 10:39:02 38° WSW 10:40:24 30° WNW
Cosmos 2082 Rocket 3.7 10:41:43 23° E 10:41:43 23° E 10:45:06 10° SE
Cosmos 1833 Rocket 3.0 10:45:41 50° E 10:45:41 50° E 10:50:52 10° SE
Cosmos 2221 4.4 10:44:52 21° WNW 10:46:22 25° WSW 10:50:02 10° SSW
Meteor 1-4 Rocket 3.8 10:48:19 39° SSE 10:48:19 39° SSE 10:50:44 10° S
Cosmos 1666 Rocket 4.3 10:43:41 10° S 10:47:29 44° ESE 10:47:29 44° ESE
Cosmos 1420 Rocket 3.8 10:47:26 10° SSW 10:52:43 90° E 10:52:52 85° NNE
Cosmos 1048 Rocket 4.4 10:55:40 49° E 10:55:40 49° E 11:00:20 10° SSE
Resurs 01 Rocket 4.5 10:53:30 10° SW 10:55:14 12° WSW 10:56:57 10° W
GP-B 4.4 10:53:36 10° SSW 10:57:37 32° W 10:58:11 31° W
USA 281 3.5 10:55:53 10° SSE 11:02:27 65° WSW 11:05:29 34° NW
Cosmos 2154 Rocket 3.9 10:58:27 10° S 11:04:52 81° E 11:05:48 66° NNE
Cosmos 1656 3.5 11:03:14 10° SSW 11:08:57 82° WNW 11:09:14 79° NNW
Cosmos 2056 Rocket 4.5 11:07:12 10° SW 11:11:52 35° W 11:11:53 35° WNW
BREEZE-M R/B 4.1 11:15:09 63° NNE 11:15:30 64° NE 11:23:24 10° ESE
Meteor 1-25 Rocket 4.0 11:10:18 10° S 11:15:58 85° E 11:16:12 82° NE
Cosmos 1328 Rocket 4.2 11:19:11 51° SSE 11:19:11 51° SSE 11:22:33 10° SSE
ERS-1 Rocket 4.2 11:14:39 10° S 11:19:14 34° WSW 11:20:34 30° W
Meteor 2-12 Rocket 4.3 11:14:18 10° S 11:20:35 79° E 11:21:14 70° NE
Cosmos 1452 Rocket 3.4 11:15:15 10° SSW 11:20:30 86° SW 11:20:30 86° SW
Sich 1 4.0 11:16:43 10° SSW 11:20:22 42° WSW 11:20:22 42° WSW
SL-8 Rocket 4.4 11:22:08 10° S 11:28:12 49° ESE 11:29:01 47° ENE
Cosmos 494 Rocket 4.1 11:28:48 65° ESE 11:28:48 65° ESE 11:33:36 10° SSE
Cosmos 2360 4.3 11:24:08 10° SSW 11:29:53 66° ESE 11:30:19 63° E
Terra 2.9 11:25:43 10° S 11:30:09 36° WSW 11:30:43 35° W
NOSS 3-1 (C) 4.3 11:31:45 53° NNE 11:33:13 59° ENE 11:41:02 10° SE
Meteor 1-26 Rocket 4.2 11:34:44 74° NW 11:35:13 81° W 11:41:21 10° S
Cosmos 1980 Rocket 2.8 11:29:52 10° SSW 11:35:20 47° ESE 11:36:08 44° E
Cosmos 1151 Rocket 3.9 11:38:58 47° SW 11:38:58 47° SW 11:42:26 10° S
Cosmos 1437 Rocket 4.3 11:46:37 33° SE 11:46:37 33° SE 11:49:04 10° SSE
USA 229 DEB 4.1 11:46:20 51° NE 11:46:49 51° ENE 11:53:57 10° SE
USA 229 4.1 11:46:21 50° NE 11:46:49 51° ENE 11:53:58 10° SE
CZ-2D R/B 3.2 11:47:07 32° E 11:47:50 34° ESE 11:52:34 10° S
COSMOS 2406 4.1 11:47:44 36° W 11:49:11 43° WSW 11:54:39 10° SSE
ALOS 2 3.8 11:46:52 10° SSE 11:49:58 36° ESE 11:49:58 36° ESE
Resurs 1-4 Rocket 3.1 11:50:43 36° E 11:51:25 38° ESE 11:56:22 10° S
SL-4 R/B 4.4 11:49:29 10° SW 11:52:17 19° S 11:54:59 10° ESE
Cosmos 1607 3.8 11:46:30 10° SW 11:52:36 74° WNW 11:52:38 74° WNW
BREEZE-M DEB (TANK) 4.3 11:50:03 10° WSW 11:56:27 53° S 11:56:27 53° S
